Kirsten H — WY7979 — position and weather

sailwx.info

Track history (hours):
 
Tides and Currents Weather Stations Pressure Air Temp Water Temp Dewpoint Dewpoint Depression Visibility Wind Speed Wind Dir Waves Ship Positions

Kirsten H

More information available from US FCC via Universal Licensing System and Coast Guard Vessel Documentation Center.

Last reported at 2014-Sep-02 02:29 UTC. Time now 2014-Sep-02 21:25 UTC.
Position N 50°43' W 127°00'.

Length 22 m; draft 4.2 m.

Type: Tow > 200 m length. MMSI: 366623050.

Date/timePositionNaut miles runAvg speedWind from/ knotsBaromVisibWave heightAir tempDewpointWater temp
2014-Sep-02 02:29N 50°43' W 127°00'7 7.3
2014-Sep-02 01:34N 50°47' W 127°09'7 7.3
2014-Sep-02 00:34N 50°51' W 127°18'7 7.4
2014-Sep-01 23:34N 50°56' W 127°27'7 7.1
2014-Sep-01 22:34N 51°01' W 127°35'7 6.7
2014-Sep-01 21:33N 51°05' W 127°43'6 6.0
2014-Sep-01 20:33N 51°09' W 127°51'6 6.1
2014-Sep-01 19:33N 51°15' W 127°53'46 6.4
2014-Sep-01 12:26N 52°01' W 127°56'11 5.2
2014-Sep-01 10:19N 52°09' W 128°08'4 4.9
2014-Sep-01 09:33N 52°13' W 128°08'  
2014-Aug-26 23:33N 52°13' W 128°11'14 6.7
2014-Aug-26 21:30N 52°03' W 127°56'52 8.8
2014-Aug-26 15:33N 51°11' W 127°51'8 8.3
2014-Aug-26 14:32N 51°04' W 127°42'9 8.9
2014-Aug-26 13:34N 50°59' W 127°32'10 9.7
2014-Aug-26 12:33N 50°52' W 127°20'9 9.0
2014-Aug-26 11:33N 50°47' W 127°09'135 7.9
2014-Aug-25 18:28N 49°27' W 124°20'8 8.2
2014-Aug-25 17:34N 49°23' W 124°10'8 7.7
2014-Aug-25 16:32N 49°18' W 124°00'9 7.3
2014-Aug-25 15:21N 49°11' W 123°53'3 0.2
2014-Aug-24 23:12N 49°08' W 123°51'0 0.0
2014-Aug-24 20:12N 49°08' W 123°51'1 0.7
2014-Aug-24 18:23N 49°09' W 123°52'12 6.3
2014-Aug-24 16:33N 49°20' W 123°59'16 7.7
2014-Aug-24 14:31N 49°32' W 124°15'10 7.6
2014-Aug-24 13:12N 49°36' W 124°29'16 7.8
2014-Aug-24 11:11N 49°46' W 124°49'6 7.7
2014-Aug-24 10:23N 49°50' W 124°56'  
Track history (hours):
 
Tides and Currents Weather Stations Pressure Air Temp Water Temp Dewpoint Dewpoint Depression Visibility Wind Speed Wind Dir Waves Ship Positions

Kirsten H

More information available from US FCC via Universal Licensing System and Coast Guard Vessel Documentation Center.

Last reported at 2014-Sep-02 02:29 UTC. Time now 2014-Sep-02 21:25 UTC.
Position N 50°43' W 127°00'.

Length 22 m; draft 4.2 m.

Type: Tow > 200 m length. MMSI: 366623050.

Date/timePositionNaut miles runAvg speedWind from/ knotsBaromVisibWave heightAir tempDewpointWater temp
2014-Sep-02 02:29N 50°43' W 127°00'7 7.3
2014-Sep-02 01:34N 50°47' W 127°09'7 7.3
2014-Sep-02 00:34N 50°51' W 127°18'7 7.4
2014-Sep-01 23:34N 50°56' W 127°27'7 7.1
2014-Sep-01 22:34N 51°01' W 127°35'7 6.7
2014-Sep-01 21:33N 51°05' W 127°43'6 6.0
2014-Sep-01 20:33N 51°09' W 127°51'6 6.1
2014-Sep-01 19:33N 51°15' W 127°53'46 6.4
2014-Sep-01 12:26N 52°01' W 127°56'11 5.2
2014-Sep-01 10:19N 52°09' W 128°08'4 4.9
2014-Sep-01 09:33N 52°13' W 128°08'  
2014-Aug-26 23:33N 52°13' W 128°11'14 6.7
2014-Aug-26 21:30N 52°03' W 127°56'52 8.8
2014-Aug-26 15:33N 51°11' W 127°51'8 8.3
2014-Aug-26 14:32N 51°04' W 127°42'9 8.9
2014-Aug-26 13:34N 50°59' W 127°32'10 9.7
2014-Aug-26 12:33N 50°52' W 127°20'9 9.0
2014-Aug-26 11:33N 50°47' W 127°09'135 7.9
2014-Aug-25 18:28N 49°27' W 124°20'8 8.2
2014-Aug-25 17:34N 49°23' W 124°10'8 7.7
2014-Aug-25 16:32N 49°18' W 124°00'9 7.3
2014-Aug-25 15:21N 49°11' W 123°53'3 0.2
2014-Aug-24 23:12N 49°08' W 123°51'0 0.0
2014-Aug-24 20:12N 49°08' W 123°51'1 0.7
2014-Aug-24 18:23N 49°09' W 123°52'12 6.3
2014-Aug-24 16:33N 49°20' W 123°59'16 7.7
2014-Aug-24 14:31N 49°32' W 124°15'10 7.6
2014-Aug-24 13:12N 49°36' W 124°29'16 7.8
2014-Aug-24 11:11N 49°46' W 124°49'6 7.7
2014-Aug-24 10:23N 49°50' W 124°56'  

Dump ship's entire track history